Location: Bettgenhausen
(50.6463°N, 7.5681°E)
Time: 06:26:44
(UTC+00:00)

Cosmos 1869 Rocket - Pass Details

Date: 27 February 2020
Orbit: 604 x 634 km, 82.5° (Epoch: 28 March)

Event Time Altitude Azimuth Distance (km) Brightness Sun altitude
Rises 19:08:30 0° 198° (SSW) 2,886 7.1 -20.0°
Reaches altitude 10° 19:10:45 10° 202° (SSW) 1,980 6.3 -20.3°
Maximum altitude 19:15:06 61° 283° (WNW) 702 4.0 -21.0°
Drops below altitude 10° 19:19:26 10° 4° (N) 1,979 6.2 -21.7°
Sets 19:21:41 0° 8° (N) 2,885 7.1 -22.0°
